This is the latest recevied weather packets stored in our database for station/object NI4CE-14. If no packets are shown the sender has not sent any weather packets the latest 1 day(s).
| Time | Temp. | Humidity | Pressure | Rain* | Wind** | Luminosity | Snow |
|---|---|---|---|---|---|---|---|
| 1778077693 | 30° C | 100% | 1015.3 hPa | 0 mm | - | - | - |
| 1778077393 | 30° C | 100% | 1015.2 hPa | 0 mm | - | - | - |
| 1778077093 | 29.44° C | 100% | 1015.2 hPa | 0 mm | - | - | - |
| 1778076793 | 29.44° C | 100% | 1015.2 hPa | 0 mm | - | - | - |
| 1778076493 | 29.44° C | 100% | 1015.2 hPa | 0 mm | - | - | - |
| 1778076193 | 29.44° C | 100% | 1015.2 hPa | 0 mm | - | - | - |
| 1778075893 | 28.89° C | 100% | 1015.2 hPa | 0 mm | - | - | - |
| 1778075293 | 28.89° C | 100% | 1015.1 hPa | 0 mm | - | - | - |
| 1778074693 | 28.89° C | 100% | 1015.1 hPa | 0 mm | - | - | - |
| 1778074393 | 28.89° C | 100% | 1015 hPa | 0 mm | - | - | - |
| 1778074093 | 28.89° C | 100% | 1014.9 hPa | 0 mm | - | - | - |
| 1778073793 | 28.33° C | 100% | 1015 hPa | 0 mm | - | - | - |
| 1778073493 | 28.33° C | 100% | 1014.9 hPa | 0 mm | - | - | - |
| 1778073193 | 28.33° C | 100% | 1014.9 hPa | 0 mm | - | - | - |
| 1778072893 | 27.78° C | 100% | 1014.9 hPa | 0 mm | - | - | - |
| 1778072593 | 27.78° C | 100% | 1014.9 hPa | 0 mm | - | - | - |
| 1778072293 | 27.78° C | 100% | 1014.8 hPa | 0 mm | - | - | - |
| 1778071993 | 27.22° C | 100% | 1015 hPa | 0 mm | - | - | - |
| 1778071693 | 27.22° C | 100% | 1014.9 hPa | 0 mm | - | - | - |
| 1778071393 | 27.22° C | 100% | 1014.8 hPa | 0 mm | - | - | - |
| 1778069293 | 26.11° C | 100% | 1014.6 hPa | 0 mm | - | - | - |
| 1778068993 | 25.56° C | 100% | 1014.6 hPa | 0 mm | - | - | - |
| 1778068394 | 25.56° C | 100% | 1014.4 hPa | 0 mm | - | - | - |
| 1778064493 | 25° C | 100% | 1013.8 hPa | 0 mm | - | - | - |
| 1778064193 | 25° C | 100% | 1013.8 hPa | 0 mm | - | - | - |
* Rain latest hour (hover to see other rain measurements)
** Current wind speed in m/s (hover to see current wind gust speed)